#timestamp,LO_Frequency,Hit,StdDev 
1514952015.1,286046998.3,P
1514952016.0,286046998.3,P
1514952035.8,286047000.7,P
1514952055.6,286047001.1,N
1514952075.5,286046998.3,N
1514952095.3,286047000.6,N
1514952115.1,286047000.9,N
1514952135.9,286047001.2,N
1514952155.7,286046998.2,N
1514952175.6,286046999.4,N
1514952195.4,286046999.0,N
1514952215.2,286047000.9,N
1514952235.1,286046998.6,N
1514952236.0,286046998.6,N
1514952255.8,286046998.3,N
1514952275.6,286046998.2,N
1514952295.5,286046999.3,N
1514952315.3,286046998.8,N
1514952335.2,286046998.4,N
1514952355.9,286046998.1,N
1514952375.7,286047001.1,N
1514952395.6,286046998.5,N
1514952415.4,286047000.7,N
1514952435.2,286047000.7,N
1514952455.1,286047002.3,N
1514952456.0,286047002.3,N
1514952475.8,286047000.4,N
1514952495.7,286046998.1,N
1514952515.5,286046998.1,N
1514952535.3,286047002.3,N
1514952555.2,286047002.1,N
1514952575.0,286047001.0,N
1514952575.9,286047001.0,N
1514952595.7,286047000.3,N
1514952615.6,286047000.2,N
1514952635.4,286047002.6,N
1514952655.3,286047002.3,N
1514952675.1,286047000.7,N
1514952676.0,286047000.7,N
1514952695.8,286047001.2,N
1514952715.7,286047001.1,N
1514952735.5,286047001.2,N
1514952755.3,286047000.8,N
1514952775.2,286046998.1,N
1514952795.0,286046998.2,N
1514952795.9,286046998.2,N
1514952815.8,286047001.0,N
1514952835.6,286046999.7,N
1514952855.4,286047002.1,N
1514952875.3,286047002.4,N
1514952895.1,286047004.3,N
1514952915.9,286047005.4,Y
1514952935.7,286047004.2,P
1514952955.5,286047004.9,N
1514952975.4,286047005.1,N
1514952995.2,286047006.9,Y
1514953015.0,286047006.0,P
1514953016.0,286047006.0,P
1514953035.8,286047005.4,P
1514953055.6,286047011.9,Y
1514953075.5,286047000.5,P
1514953095.3,286046999.9,N
1514953115.1,286047002.7,N
1514953135.9,286047002.4,N
1514953155.7,286047000.4,N
1514953175.6,286047002.8,N
1514953195.4,286047001.9,N
1514953215.2,286047002.7,N
1514953235.1,286047002.9,N
1514953236.0,286047002.9,N
1514953255.8,286047003.1,N
1514953275.6,286047001.3,N
1514953295.5,286047004.4,Y
1514953315.3,286046998.2,P
1514953335.2,286046998.5,N
1514953355.9,286047000.4,N
1514953375.7,286047000.4,N
1514953395.6,286047000.9,N
1514953415.4,286047000.2,N
1514953435.3,286047000.3,N
1514953455.1,286047002.5,N
1514953456.0,286047002.5,N
1514953475.8,286047000.2,N
1514953495.7,286046999.8,N
1514953515.5,286047002.3,N
1514953535.3,286047003.5,N
1514953555.2,286047004.3,N
1514953575.0,286047004.4,N
1514953575.9,286047004.4,N
1514953595.8,286047001.5,N
1514953615.6,286047003.4,N
1514953635.4,286047005.4,N
1514953655.3,286047006.3,Y
1514953675.1,286047007.6,P
1514953695.9,286047006.7,N
1514953715.7,286047007.8,P
1514953735.5,286047008.4,Y
1514953755.4,286047002.0,P
1514953775.2,286047003.8,N
1514953795.1,286047003.0,N
1514953796.0,286047003.0,N
1514953815.8,286047005.5,Y
1514953835.6,286047003.7,P
1514953855.5,286047003.2,P
1514953875.3,286047005.8,P
1514953895.2,286047004.6,Y
1514953915.9,286047002.3,P
1514953935.7,286047000.5,N
1514953955.6,286046998.1,N
1514953975.4,286047002.6,N
1514953995.3,286047002.6,N
1514954015.1,286047004.3,N
1514954016.0,286047004.3,N
1514954035.8,286047004.1,N
1514954055.7,286047004.4,N
1514954075.5,286047004.6,N
1514954095.3,286047007.3,Y
1514954115.2,286047007.6,P
1514954135.0,286047006.8,N
1514954135.9,286047006.8,P
1514954155.8,286047006.7,Y
1514954205.6,286047003.5,E
1514954215.6,286047004.3,N
1514954235.4,286047002.3,P
1514954255.2,286047000.2,N
1514954275.1,286047002.1,N
1514954276.0,286047002.1,N
1514954295.8,286047004.3,Y
1514954315.7,286047002.2,P
1514954335.5,286047001.5,P
1514954355.3,286047001.5,P
1514954375.2,286047001.5,Y
1514954395.0,286046998.1,P
1514954395.9,286046998.1,N
1514954415.7,286046998.2,N
1514954435.6,286046998.9,N
1514954455.4,286046999.3,N
1514954475.3,286047002.3,N
1514954495.1,286047000.6,N
1514954515.8,286047001.3,N
1514954535.7,286047002.6,N
1514954555.5,286047002.9,N
1514954575.4,286047005.4,N
1514954595.2,286047003.0,N
1514954615.0,286047004.6,N
1514954615.9,286047004.6,N
1514954635.8,286047004.8,N
1514954655.6,286047007.2,N
1514954675.5,286047006.6,N
1514954695.3,286047007.2,N
1514954715.1,286047005.6,N
1514954735.9,286047005.2,N
1514954755.7,286047005.4,N
1514954775.5,286047004.8,N
1514954795.4,286047005.2,N
1514954815.2,286047006.9,N
1514954835.1,286047006.2,N
1514954836.0,286047006.2,N
1514954855.8,286047008.1,N
1514954875.6,286047009.5,Y
1514954895.5,286047006.4,P
1514954915.3,286047009.0,P
1514954935.1,286047010.7,P
1514954955.9,286047008.0,N
1514954975.7,286047010.5,Y
1514954995.6,286047003.8,P
1514955015.4,286047003.6,N
1514955035.2,286047004.3,N
1514955055.1,286047004.2,N
1514955056.0,286047004.2,N
1514955075.8,286047003.3,N
1514955095.7,286047005.3,Y
1514955115.5,286047000.1,P
1514955135.3,286047000.4,N
1514955155.2,286047000.9,N
1514955175.0,286047002.2,N
1514955175.9,286047002.2,N
1514955195.8,286047002.6,N
1514955215.6,286047002.8,N
1514955235.4,286047001.5,N
1514955255.3,286047003.9,Y
1514955275.1,286047001.8,P
1514955295.8,286047001.6,P
1514955315.7,286046999.8,N
1514955335.5,286047000.1,N
1514955355.4,286046999.7,N
1514955375.2,286047004.3,Y
1514955395.0,286047001.4,P
1514955395.9,286047001.4,P
1514955415.8,286047004.0,P
1514955435.6,286047001.9,N
1514955455.4,286047001.3,N
1514955475.3,286047001.6,N
1514955495.1,286047001.6,N
1514955515.9,286047004.0,Y
1514955535.7,286047001.8,P
1514955555.5,286047001.3,P
1514955575.4,286047003.9,P
1514955595.2,286047003.9,Y
